Date,TemperatureHighF,TemperatureAvgF,TemperatureLowF,DewpointHighF,DewpointAvgF,DewpointLowF,HumidityHigh,HumidityAvg,HumidityLow,PressureMaxIn,PressureMinIn,WindSpeedMaxMPH,WindSpeedAvgMPH,GustSpeedMaxMPH,PrecipitationSumIn
2013-1-1,22.9,13.5,0.0,5.0,-3.5,-7.7,80,50,28,30.47,30.25,26,10,26,0.00
2013-1-2,24.7,16.1,4.1,-3.4,-6.4,-9.9,53,36,24,30.54,30.27,24,8,24,0.00
2013-1-3,38.9,12.6,-7.7,-1.3,-7.9,-14.9,73,45,11,30.79,30.35,17,3,17,0.00
2013-1-4,44.8,19.0,2.0,10.6,2.4,-5.7,75,52,22,30.64,30.17,8,2,8,0.00
2013-1-5,41.8,20.3,-0.2,9.7,-2.5,-12.0,74,42,16,30.58,30.17,24,6,24,0.00
2013-1-6,49.6,27.5,-0.6,1.4,-6.6,-12.8,58,28,8,30.52,29.78,28,7,28,0.00
2013-1-7,47.0,38.0,27.8,-0.3,-7.1,-15.1,27,14,8,30.08,29.71,34,12,34,0.00
2013-1-8,36.5,33.3,30.1,14.4,10.2,-7.5,46,38,16,30.22,29.67,39,20,39,0.00
2013-1-9,54.1,38.7,24.5,12.6,7.5,0.4,44,29,12,30.35,29.96,24,7,24,0.00
2013-1-10,47.9,29.7,14.8,11.5,3.5,-6.3,59,37,11,30.06,29.46,27,7,27,0.00
2013-1-11,30.7,18.7,10.0,19.8,0.7,-14.0,77,46,26,29.89,29.23,43,17,43,0.00
2013-1-12,16.9,7.0,-3.3,-1.3,-10.9,-17.3,75,47,23,30.35,29.90,29,9,29,0.00
2013-1-13,11.2,-1.1,-9.8,-1.9,-9.3,-16.9,73,68,53,30.56,30.28,13,3,13,0.00
2013-1-14,15.6,-0.9,-13.5,-2.7,-13.6,-21.0,73,57,26,30.67,30.29,22,5,22,0.00
2013-1-15,31.8,20.3,3.4,13.7,-1.4,-21.5,50,38,23,30.51,30.15,24,9,24,0.00
2013-1-16,50.1,31.7,16.2,15.0,12.1,8.3,74,46,24,30.46,30.06,24,8,24,0.00
2013-1-17,51.4,27.8,6.5,13.0,6.4,-1.7,83,48,16,30.74,30.12,32,5,32,0.00
2013-1-18,44.8,37.7,33.1,2.9,0.6,-1.4,25,21,16,30.24,30.01,40,21,40,0.00
2013-1-19,48.5,39.3,32.4,0.8,-2.8,-9.4,24,17,10,30.22,29.99,31,15,31,0.00
2013-1-20,42.9,33.7,18.1,8.1,-0.1,-6.8,60,26,14,30.35,30.02,34,12,34,0.00
2013-1-21,43.3,36.5,30.7,6.8,1.2,-9.3,29,22,12,30.26,30.00,39,21,39,0.00
2013-1-22,51.0,43.2,36.6,-7.2,-12.0,-17.7,14,9,6,30.10,29.93,46,24,46,0.00
2013-1-23,56.7,47.1,42.1,-1.7,-8.8,-20.0,14,9,6,30.07,29.91,36,16,36,0.00
2013-1-24,50.2,43.2,33.5,24.4,7.6,-7.9,51,26,11,30.00,29.84,43,22,43,0.00
2013-1-25,49.9,42.5,38.5,24.6,21.8,17.5,52,44,32,30.07,29.88,34,16,34,0.00
2013-1-26,51.6,41.2,30.1,29.2,22.0,14.1,89,49,24,29.90,29.64,31,9,31,0.00
2013-1-27,47.9,37.1,26.6,27.7,20.4,13.0,91,56,27,29.77,29.59,33,11,33,0.01
2013-1-28,45.1,31.2,18.9,26.4,15.7,11.1,85,55,27,29.70,29.49,33,9,33,0.00
2013-1-29,23.5,15.6,5.4,15.1,-3.3,-9.2,85,44,26,30.20,29.67,30,10,30,0.00
2013-1-30,28.5,21.9,10.4,11.9,2.6,-9.8,56,43,31,30.10,29.88,41,20,41,0.00
2013-1-31,35.2,30.3,26.6,15.8,11.0,6.7,63,45,31,30.17,29.89,43,22,43,0.00
2013-2-1,37.9,32.1,28.7,17.3,11.1,7.0,50,41,30,30.13,30.00,40,19,40,0.00
2013-2-2,47.1,36.2,26.1,8.9,4.1,-1.2,41,26,15,30.32,30.12,34,16,34,0.00
2013-2-3,49.4,38.5,24.2,3.6,-5.5,-14.9,39,16,7,30.23,29.80,31,13,31,0.00
2013-2-4,44.8,35.3,29.8,9.8,3.4,-1.9,36,26,15,29.96,29.76,34,18,34,0.00
2013-2-5,50.4,39.6,32.9,17.6,13.0,7.3,45,34,26,30.00,29.72,34,14,34,0.00
2013-2-6,44.6,36.7,26.0,27.3,17.1,8.2,82,46,32,30.05,29.65,21,8,21,0.00
2013-2-7,43.1,26.4,10.2,14.0,1.0,-18.5,81,40,7,30.35,30.03,22,6,22,0.00
2013-2-8,46.0,24.0,6.1,4.8,-4.4,-9.5,57,32,12,30.27,29.71,16,4,16,0.00
2013-2-9,34.6,21.4,9.9,22.4,9.9,-3.6,85,63,38,29.90,29.52,22,4,22,0.01
2013-2-10,28.2,20.8,13.3,12.1,4.8,-2.0,74,51,31,30.14,29.60,25,7,25,0.00
2013-2-11,24.7,13.2,3.7,14.5,6.5,-1.7,82,75,49,30.38,30.10,14,4,14,0.01
2013-2-12,37.8,23.8,15.2,4.8,-3.0,-16.2,48,31,18,30.33,30.01,28,13,28,0.00
2013-2-13,34.9,28.4,22.2,11.2,5.9,1.5,43,38,32,30.13,29.94,39,22,39,0.00
2013-2-14,36.0,23.2,11.4,16.8,9.3,4.1,79,57,27,30.40,29.99,28,8,28,0.00
2013-2-15,31.0,21.7,6.3,12.0,4.5,-1.0,81,51,27,30.52,30.21,34,11,34,0.00
2013-2-16,45.7,35.5,27.2,9.0,5.5,0.2,44,29,18,30.25,29.89,46,24,46,0.00
2013-2-17,49.1,36.6,23.5,10.0,-0.5,-10.3,42,22,11,29.88,29.48,36,16,36,0.00
2013-2-18,29.7,23.0,12.3,2.1,-3.8,-11.3,47,31,20,30.20,29.67,30,12,30,0.00
2013-2-19,44.1,20.6,9.2,-3.4,-11.1,-23.6,52,29,8,30.22,29.93,13,5,13,0.00
2013-2-20,38.8,25.5,16.7,16.6,12.0,5.6,86,61,27,29.85,29.67,16,7,16,0.00
2013-2-21,24.1,16.3,6.7,15.7,11.0,1.8,84,80,70,30.07,29.68,13,4,13,0.06
2013-2-22,30.4,21.7,6.3,16.1,3.7,-6.3,85,48,27,30.10,29.90,32,12,32,0.01
2013-2-23,37.0,26.0,19.2,18.2,7.4,-4.6,85,46,33,29.94,29.59,44,19,44,0.00
2013-2-24,22.7,17.8,1.8,17.9,11.2,-3.6,86,76,51,30.37,29.70,20,5,20,0.01
2013-2-25,38.0,18.4,-6.8,16.2,3.2,-13.2,80,55,22,30.47,29.76,20,4,20,0.03
2013-2-26,31.0,24.1,16.4,19.5,8.4,1.5,83,52,33,30.25,29.71,28,9,28,0.03
2013-2-27,30.6,22.9,11.9,2.2,-4.5,-11.9,52,30,17,30.49,30.25,28,12,28,0.00
2013-2-28,34.3,25.6,12.1,8.2,0.3,-6.8,47,33,24,30.40,30.19,37,18,37,0.00
2013-3-1,43.6,34.7,24.4,17.6,9.7,-2.8,47,35,25,30.39,30.17,29,15,29,0.00
2013-3-2,49.6,40.8,34.7,19.2,17.2,12.3,51,39,27,30.30,29.90,37,19,37,0.00
2013-3-3,50.7,42.3,32.2,28.7,18.0,11.2,86,40,24,29.90,29.47,43,19,43,0.00
2013-3-4,35.8,25.3,18.9,29.2,12.6,-5.6,90,61,32,30.31,29.59,36,12,36,0.03
2013-3-5,48.0,30.7,18.3,9.8,-1.9,-13.0,51,27,10,30.34,30.06,28,12,28,0.01
2013-3-6,53.9,42.1,18.0,10.2,5.3,-6.1,46,23,13,30.15,29.61,36,14,36,0.00
2013-3-7,56.5,44.1,24.2,18.8,11.2,1.6,65,29,11,29.94,29.60,34,11,34,0.00
2013-3-8,48.3,31.2,19.5,25.4,17.0,9.8,88,59,27,30.01,29.63,17,4,17,0.00
2013-3-9,29.0,25.7,20.3,26.2,18.9,3.7,90,76,46,30.18,29.57,34,7,34,0.10
2013-3-10,45.4,29.6,11.6,19.0,6.4,-2.2,63,39,23,30.30,30.01,28,9,28,0.01
2013-3-11,43.2,33.0,23.0,23.4,14.8,8.7,88,49,28,30.13,29.79,44,20,44,0.00
2013-3-12,44.5,31.4,20.3,28.6,19.6,15.6,88,66,32,30.36,30.10,32,11,32,0.04
2013-3-13,56.2,45.0,38.0,20.4,17.5,10.7,46,34,17,30.19,30.02,37,18,37,0.00
2013-3-14,59.5,49.6,41.5,18.5,12.9,7.0,33,23,15,30.15,29.92,30,13,30,0.00
2013-3-15,63.4,53.7,47.0,24.2,15.5,9.9,40,22,15,29.91,29.61,44,17,44,0.00
2013-3-16,50.8,40.9,31.2,27.8,21.8,13.1,72,48,27,29.87,29.60,30,9,30,0.00
2013-3-17,45.4,33.6,22.7,28.3,17.0,-4.1,87,52,23,29.81,29.43,33,11,33,0.00
2013-3-18,36.5,28.4,20.6,18.3,1.6,-11.0,64,32,22,29.99,29.79,37,19,37,0.00
2013-3-19,41.2,32.1,17.2,9.2,-9.7,-23.4,68,19,6,30.38,29.89,39,17,39,0.00
2013-3-20,51.6,33.5,9.3,22.8,9.3,-7.5,77,42,16,30.37,29.57,38,13,38,0.00
2013-3-21,45.7,36.5,27.0,27.5,12.5,-7.9,74,39,17,29.74,29.39,38,15,38,0.00
2013-3-22,38.5,26.2,17.5,20.6,8.0,-2.9,87,52,18,29.94,29.66,31,12,31,0.00
2013-3-23,17.5,12.0,-0.8,13.8,7.2,-6.5,85,81,75,30.51,29.90,14,5,14,0.00
2013-3-24,22.9,8.6,-7.7,6.8,-2.5,-14.3,80,62,31,30.52,30.36,29,5,29,0.04
2013-3-25,29.7,21.2,7.4,11.4,4.3,-7.0,76,50,24,30.56,30.34,17,5,17,0.06
2013-3-26,46.2,30.4,5.4,24.3,13.6,-0.9,77,51,32,30.39,29.91,28,10,28,0.00
2013-3-27,49.9,36.6,26.1,28.1,23.1,14.7,86,61,26,30.08,29.91,22,5,22,0.00
2013-3-28,56.0,37.8,21.0,27.9,22.1,14.7,88,58,20,30.19,29.99,16,4,16,0.00
2013-3-29,55.6,40.8,25.7,31.1,24.5,14.2,86,55,21,30.12,29.93,31,10,31,0.00
2013-3-30,54.7,42.9,30.6,31.4,22.6,14.7,83,48,22,30.11,29.87,35,10,35,0.00
2013-3-31,58.9,42.1,22.1,25.6,11.6,-6.5,89,39,7,30.17,29.81,36,12,36,0.00
2013-4-1,49.4,34.0,20.8,32.8,24.0,15.5,91,68,40,30.14,29.94,17,4,17,0.02
2013-4-2,36.9,31.8,29.7,33.6,29.5,27.5,92,91,86,30.14,29.95,13,3,13,0.15
2013-4-3,57.6,37.9,19.2,33.5,24.3,12.5,92,65,18,30.26,29.95,31,5,31,0.15
2013-4-4,58.7,47.5,36.3,28.1,22.4,16.2,62,39,21,30.07,29.84,28,10,28,0.00
2013-4-5,58.6,45.2,35.3,33.0,22.6,16.7,78,43,23,29.86,29.58,33,11,33,0.01
2013-4-6,55.0,43.9,36.6,28.3,18.4,12.4,63,37,21,29.87,29.67,27,11,27,0.00
2013-4-7,50.1,41.2,32.8,34.3,24.9,16.3,88,55,31,29.75,29.57,34,12,34,0.03
2013-4-8,55.7,39.0,27.0,31.9,24.8,18.3,92,61,24,29.69,29.31,21,6,21,0.01
2013-4-9,26.9,14.5,6.0,24.4,9.1,0.1,90,79,71,30.40,29.56,16,3,16,0.01
2013-4-10,29.4,15.2,-2.2,17.9,6.2,-8.2,80,68,35,30.44,29.89,27,7,27,0.10
2013-4-11,48.5,37.6,29.0,26.4,18.5,9.6,69,46,34,29.89,29.66,34,13,34,0.02
2013-4-12,49.1,35.8,25.6,28.7,22.0,8.5,86,63,21,29.96,29.77,30,8,30,0.00
2013-4-13,53.9,38.7,22.2,32.8,20.7,10.6,90,56,20,29.86,29.33,46,15,46,0.08
2013-4-14,34.6,29.5,25.3,29.8,8.5,-4.2,89,44,22,29.82,29.33,38,14,38,0.05
2013-4-15,28.5,22.2,16.2,22.7,17.6,9.5,88,83,46,30.17,29.74,20,3,20,0.06
2013-4-16,26.6,21.7,15.7,22.5,18.1,11.7,88,86,83,30.17,29.95,12,4,12,0.06
2013-4-17,24.4,18.5,7.6,20.1,14.4,2.5,88,84,80,30.31,30.01,18,6,18,0.00
2013-4-18,27.0,14.0,-4.6,9.1,0.9,-11.1,80,58,33,30.48,30.27,33,12,33,0.01
2013-4-19,38.8,31.3,22.4,20.2,13.5,4.8,54,47,39,30.27,29.92,34,16,34,0.10
2013-4-20,42.8,37.0,29.3,29.1,23.0,17.8,83,58,40,30.00,29.83,21,8,21,0.02
2013-4-21,46.2,38.3,28.1,29.2,20.3,15.8,84,50,33,30.07,29.91,28,11,28,0.00
2013-4-22,43.2,27.3,15.4,33.2,21.9,11.4,90,81,41,30.34,29.80,21,6,21,0.05
2013-4-23,29.0,20.5,12.4,21.4,13.4,6.3,84,74,48,30.44,30.22,17,4,17,0.28
2013-4-24,43.1,31.4,17.7,12.0,8.1,3.3,66,39,22,30.30,30.16,26,9,26,0.00
2013-4-25,58.4,42.0,23.2,24.3,11.8,0.1,71,32,16,30.23,29.75,28,9,28,0.00
2013-4-26,57.2,42.0,25.1,24.2,18.6,11.5,78,45,18,30.15,29.94,21,4,21,0.00
2013-4-27,62.9,46.3,26.7,25.5,16.6,9.1,73,37,14,30.18,29.89,25,8,25,0.00
2013-4-28,66.8,55.6,38.0,33.1,24.3,17.0,55,32,16,29.93,29.58,30,10,30,0.00
2013-4-29,68.3,55.9,39.2,33.1,21.6,13.7,68,30,14,29.72,29.32,39,13,39,0.00
2013-4-30,57.2,46.3,32.7,37.0,29.5,17.6,93,57,22,29.88,29.26,38,10,38,0.15
2013-5-1,33.2,31.7,31.0,31.4,29.8,28.9,93,93,92,30.01,29.87,0,0,0,0.01
2013-5-5,38.3,37.9,36.9,34.7,33.9,33.1,88,85,83,30.07,30.05,6,2,6,0.12
2013-5-6,57.5,45.1,30.4,37.4,30.9,26.1,92,62,34,30.13,29.74,18,4,18,0.00
2013-5-7,62.0,48.3,33.4,35.5,29.2,23.0,80,50,25,29.84,29.68,28,9,28,0.00
2013-5-8,58.0,41.6,32.1,37.7,32.9,26.0,88,74,32,30.08,29.76,26,5,26,0.32
2013-5-9,47.3,38.6,33.1,43.9,34.2,30.2,93,85,61,30.24,29.75,29,3,29,0.28
2013-5-10,61.8,44.3,29.4,36.3,30.1,19.3,92,62,23,30.27,30.08,32,6,32,0.01
2013-5-11,61.2,45.9,30.9,39.0,31.4,21.8,89,60,23,30.34,30.04,26,6,26,0.00
2013-5-12,70.8,57.3,41.3,34.2,27.7,21.4,69,35,17,30.12,29.84,31,8,31,0.01
2013-5-13,75.8,62.6,46.8,38.5,30.6,24.8,58,32,16,29.95,29.73,20,7,20,0.00
2013-5-14,73.5,60.3,43.3,48.4,32.9,25.9,69,38,19,29.84,29.62,24,8,24,0.04
2013-5-15,72.5,54.6,43.2,41.5,35.6,27.6,80,51,22,29.81,29.62,22,5,22,0.00
2013-5-16,69.6,57.5,42.8,39.6,32.7,21.4,84,42,17,29.77,29.51,32,9,32,0.00
2013-5-17,74.0,58.1,37.6,38.8,25.7,13.9,77,36,12,29.75,29.50,26,7,26,0.00
2013-5-18,63.2,51.3,38.5,40.8,25.6,15.2,82,39,19,29.84,29.50,29,10,29,0.06
2013-5-19,58.0,49.6,43.8,28.5,25.0,20.0,51,39,25,29.71,29.55,29,16,29,0.00
2013-5-20,55.9,47.3,40.5,35.9,28.1,21.3,78,48,32,29.86,29.60,24,10,24,0.00
2013-5-21,60.9,48.3,36.5,28.6,22.0,15.7,60,37,22,29.93,29.70,26,9,26,0.00
2013-5-22,64.8,50.4,32.5,43.4,31.2,21.2,88,52,22,29.86,29.67,18,6,18,0.10
2013-5-23,57.8,50.1,43.5,45.4,42.9,40.8,91,77,61,29.89,29.77,13,5,13,0.00
2013-5-24,73.7,56.8,36.6,43.0,31.1,15.9,91,46,12,29.87,29.64,25,6,25,0.00
2013-5-25,75.3,58.5,35.3,34.6,22.7,9.0,80,33,8,29.86,29.59,25,7,25,0.00
2013-5-26,74.4,57.4,42.9,31.8,24.7,12.5,48,31,10,29.74,29.58,22,5,22,0.00
2013-5-27,70.8,59.8,43.1,29.6,19.2,8.2,57,23,12,29.63,29.42,27,8,27,0.00
2013-5-28,68.1,54.0,33.7,38.1,27.0,16.4,72,39,15,29.68,29.31,26,6,26,0.00
2013-5-29,57.5,47.4,40.1,39.7,31.0,22.9,88,55,28,29.60,29.24,36,12,36,0.19
2013-5-30,55.9,48.0,42.5,29.6,22.9,14.5,55,38,22,29.65,29.42,50,20,50,0.00
2013-5-31,58.9,50.3,40.2,26.4,16.6,10.9,47,27,18,29.84,29.50,40,15,40,0.00
2013-6-1,58.9,50.2,43.5,35.8,28.7,13.5,64,44,23,30.08,29.82,26,7,26,0.00
2013-6-2,74.2,55.4,28.5,36.1,29.0,14.4,86,43,17,30.11,29.40,21,4,21,0.00
2013-6-3,76.3,58.4,36.5,36.3,26.3,12.1,65,34,13,29.89,29.35,44,8,44,0.00
2013-6-4,66.6,52.3,34.3,45.0,34.0,10.0,75,51,17,29.97,29.60,21,7,21,0.00
2013-6-5,59.0,48.5,39.9,41.7,39.3,36.3,91,72,48,30.06,29.88,20,6,20,0.01
2013-6-6,68.6,51.8,33.4,40.6,34.1,27.0,92,58,24,30.03,29.83,24,5,24,0.01
2013-6-7,71.8,55.8,36.9,41.8,35.8,25.9,88,52,22,29.96,29.48,28,5,28,0.00
2013-6-8,73.2,61.9,45.7,45.5,34.4,23.7,68,38,16,29.83,29.37,36,9,36,0.00
2013-6-9,83.6,64.9,35.8,41.1,30.9,23.1,87,38,13,29.92,29.42,24,5,24,0.00
2013-6-10,85.7,70.7,48.0,44.7,29.8,8.4,53,25,11,29.86,29.35,29,4,29,0.00
2013-6-11,82.2,68.6,44.6,35.1,21.8,11.9,56,21,8,29.91,29.32,38,12,38,0.00
2013-6-12,82.6,68.2,46.1,46.6,26.7,14.7,61,23,10,29.86,29.54,26,7,26,0.00
2013-6-13,84.0,65.4,46.5,47.3,37.5,21.7,83,45,11,29.82,29.52,34,7,34,0.00
2013-6-14,82.4,64.2,44.6,43.3,32.3,10.6,70,39,8,29.74,29.53,30,9,30,0.00
2013-6-15,74.9,59.3,41.5,44.9,41.9,34.6,85,55,32,29.83,29.63,22,5,22,0.00
2013-6-16,75.4,58.2,42.1,44.9,35.8,20.5,85,50,14,30.03,29.72,37,8,37,0.03
2013-6-17,70.8,57.4,39.9,50.7,39.6,30.4,85,54,29,30.04,29.78,21,6,21,0.03
2013-6-18,77.0,59.4,40.9,53.4,40.2,26.3,92,55,17,29.94,29.54,22,5,22,0.02
2013-6-19,82.6,65.0,41.3,43.6,25.2,4.3,91,36,6,29.75,29.33,32,8,32,0.00
2013-6-20,77.6,61.8,40.6,32.8,23.2,12.5,50,24,14,29.66,29.45,21,6,21,0.00
2013-6-21,83.6,64.5,40.5,41.8,24.0,9.5,72,30,7,29.70,29.45,31,10,31,0.00
2013-6-22,77.9,61.7,41.5,44.2,30.6,16.4,78,37,10,29.67,29.50,30,6,30,0.00
2013-6-23,73.2,58.8,37.5,44.7,34.5,22.1,65,41,28,29.78,29.54,20,5,20,0.00
2013-6-24,78.1,61.3,40.5,41.5,26.6,10.7,85,36,8,29.72,29.42,29,8,29,0.00
2013-6-25,78.1,67.8,54.1,34.4,28.3,20.1,45,23,17,29.73,29.42,30,10,30,0.00
2013-6-26,82.8,62.2,41.1,39.8,32.9,27.7,78,39,15,29.87,29.65,20,4,20,0.00
2013-6-27,89.3,70.9,48.2,40.8,32.6,20.3,57,29,9,29.90,29.72,20,6,20,0.00
2013-6-28,88.4,68.6,48.2,51.3,42.7,26.4,73,43,12,29.92,29.69,28,7,28,0.00
2013-6-29,78.1,62.5,47.4,56.2,47.0,39.0,86,60,27,29.94,29.73,26,4,26,0.03
2013-6-30,70.1,59.6,52.2,55.3,50.5,46.8,86,73,51,29.97,29.78,20,4,20,0.13
2013-7-1,70.3,57.8,42.3,52.5,47.2,39.9,93,70,43,30.07,29.90,18,5,18,0.25
2013-7-2,74.6,59.5,44.1,53.3,45.0,36.7,95,64,30,30.07,29.82,22,6,22,0.01
2013-7-3,78.5,59.1,41.5,51.4,42.9,32.3,92,62,24,29.91,29.67,27,4,27,0.29
2013-7-4,79.0,64.6,50.1,50.1,42.6,34.6,81,49,23,29.82,29.54,18,5,18,0.00
2013-7-5,79.2,63.9,50.5,56.0,46.6,39.8,77,56,27,29.66,29.49,24,6,24,0.01
2013-7-6,79.2,63.5,51.6,53.8,46.9,38.6,84,59,25,29.71,29.56,29,8,29,0.08
2013-7-7,79.8,65.3,49.4,57.8,47.4,35.6,92,57,23,29.83,29.62,33,7,33,0.14
2013-7-8,81.2,69.4,55.4,47.4,39.7,31.7,67,36,19,29.86,29.64,36,10,36,0.00
2013-7-9,84.5,68.7,49.9,49.4,35.7,23.9,67,35,12,29.95,29.72,31,6,31,0.00
2013-7-10,82.0,65.7,45.5,55.9,44.3,37.6,76,49,26,29.95,29.64,21,5,21,0.00
2013-7-11,87.8,71.1,48.5,49.3,42.0,34.0,83,42,17,29.82,29.42,20,6,20,0.00
2013-7-12,80.5,69.1,59.9,56.9,46.6,40.3,84,48,27,29.72,29.45,21,7,21,0.06
2013-7-13,81.2,65.0,53.1,55.1,50.5,41.7,92,63,27,29.91,29.64,20,4,20,0.03
2013-7-14,71.5,59.2,47.6,56.5,52.9,45.4,94,80,47,30.11,29.75,18,3,18,0.06
2013-7-15,72.0,63.4,62.3,59.6,55.4,51.7,81,76,57,29.93,29.63,16,2,16,0.00
2013-7-16,72.0,65.2,44.9,52.8,48.1,36.6,92,56,41,30.10,29.68,14,2,14,0.00
2013-7-17,79.0,66.6,45.2,54.4,47.9,42.2,92,53,34,30.18,29.59,18,4,18,0.00
2013-7-18,81.1,62.1,54.5,60.1,51.1,41.6,92,71,27,29.97,29.58,22,4,22,0.39
2013-7-19,73.0,61.6,51.0,56.4,52.8,47.2,93,75,44,29.99,29.65,17,4,17,0.00
2013-7-20,82.4,62.3,45.2,56.8,47.3,38.2,89,61,23,30.02,29.47,27,4,27,0.02
2013-7-21,84.9,64.8,44.1,50.4,41.2,20.8,93,52,11,29.76,29.51,24,6,24,0.00
2013-7-22,53.5,48.8,46.1,41.9,36.4,32.8,68,62,58,29.73,29.58,6,1,6,0.00
2013-7-23,86.5,71.0,47.3,52.2,42.0,13.0,70,40,9,29.82,29.68,20,6,20,0.00
2013-7-24,78.3,63.7,52.2,58.0,51.1,42.7,92,65,41,29.87,29.56,34,6,34,0.08
2013-7-25,74.6,59.8,53.3,53.9,48.5,41.3,89,68,32,30.01,29.77,25,5,25,0.05
2013-7-26,76.0,63.3,50.5,57.5,45.8,39.2,76,56,28,30.03,29.67,24,4,24,0.02
2013-7-27,78.1,58.4,42.8,58.1,47.1,35.1,92,70,22,29.92,29.65,24,6,24,0.14
2013-7-28,72.1,58.2,52.9,55.6,52.6,39.5,94,83,41,29.74,29.58,20,3,20,0.05
2013-7-29,71.5,60.5,52.0,53.8,46.9,39.9,90,63,35,30.01,29.49,17,4,17,0.12
2013-7-30,80.7,64.0,48.6,53.0,44.4,37.4,93,54,23,30.10,29.71,26,7,26,0.02
2013-7-31,77.4,61.8,48.0,46.5,41.2,32.7,79,52,22,30.08,29.88,28,2,28,0.00
2013-8-1,76.7,59.5,45.4,52.2,44.3,18.9,90,63,26,30.14,29.62,22,3,22,0.12
2013-8-2,82.4,72.1,63.9,46.2,40.7,35.5,44,33,21,29.68,29.56,30,10,30,0.00
2013-8-3,78.1,68.1,53.6,58.0,45.0,30.4,79,47,22,30.02,29.54,30,4,30,0.04
2013-8-4,72.1,63.5,47.7,51.1,45.6,39.8,90,54,36,30.07,29.70,14,1,14,0.07
2013-8-5,73.7,65.3,52.8,54.9,42.2,36.3,66,44,33,29.96,29.70,20,6,20,0.00
2013-8-6,79.8,67.0,52.2,41.2,35.7,24.8,54,33,16,29.75,29.60,29,10,29,0.00
2013-8-7,69.6,56.9,46.1,48.4,40.7,34.2,81,56,31,29.88,29.72,21,4,21,0.00
2013-8-8,71.5,55.1,40.5,53.6,43.2,36.0,86,66,38,29.98,29.81,21,4,21,0.01
2013-8-9,68.3,53.4,41.1,49.4,43.3,36.3,91,71,33,30.14,29.86,21,4,21,0.17
2013-8-10,74.9,60.1,40.2,49.8,35.5,29.5,94,50,23,30.17,29.68,20,2,20,0.00
2013-8-11,68.9,56.2,48.3,50.9,46.6,29.5,91,71,23,30.11,29.70,14,1,14,0.20
2013-8-12,64.7,51.2,41.2,51.9,43.9,38.3,92,77,52,30.21,29.88,25,3,25,0.08
2013-8-13,60.5,53.1,41.6,52.0,45.0,39.2,93,75,50,30.17,29.96,18,4,18,0.09
2013-8-14,73.0,56.7,39.3,51.3,40.6,31.3,92,60,28,30.25,29.88,26,2,26,0.05
2013-8-15,80.1,61.6,39.5,49.8,34.0,16.0,83,44,15,30.21,29.72,21,2,21,0.00
2013-8-16,77.4,54.4,41.1,65.6,40.5,32.3,85,63,20,30.25,29.89,7,1,7,0.00
2013-8-17,76.1,55.8,43.3,61.2,40.1,26.5,79,59,16,30.16,29.67,30,1,30,0.00
2013-8-18,84.0,67.0,49.9,41.0,35.3,29.2,53,33,15,30.01,29.68,28,7,28,0.00
2013-8-19,86.1,67.5,47.6,46.6,37.4,26.4,69,38,12,29.90,29.64,17,4,17,0.00
2013-8-20,86.7,66.8,46.0,43.9,35.6,24.8,73,37,13,29.82,29.62,34,4,34,0.00
2013-8-21,79.0,67.0,55.0,46.8,41.3,35.6,64,41,23,29.81,29.67,20,5,20,0.00
2013-8-22,75.8,60.2,48.8,54.8,49.1,42.3,92,69,37,30.04,29.79,21,4,21,0.08
2013-8-23,80.9,64.3,51.3,53.3,46.6,38.7,91,57,25,29.93,29.65,25,6,25,0.05
2013-8-24,76.8,61.6,45.4,54.3,44.4,34.8,94,60,22,29.88,29.68,26,6,26,0.07
2013-8-25,78.3,61.3,45.8,55.8,47.6,39.4,92,66,27,29.99,29.78,20,4,20,0.03
2013-8-26,82.2,65.7,49.2,56.1,48.2,41.6,91,59,27,29.93,29.73,26,8,26,0.10
2013-8-27,79.8,63.3,49.4,56.0,49.8,43.0,94,66,28,29.98,29.73,25,3,25,0.09
2013-8-28,82.6,64.4,48.8,56.0,46.7,35.6,94,59,27,29.90,29.73,28,4,28,0.02
2013-8-29,84.0,62.5,46.5,53.4,45.4,38.9,83,59,22,30.09,29.79,31,5,31,0.09
2013-8-30,82.0,62.3,46.2,54.0,47.3,40.6,93,64,26,30.08,29.68,30,5,30,0.02
2013-8-31,84.1,64.4,49.5,54.9,44.6,37.2,83,51,22,29.92,29.62,26,5,26,0.01
2013-9-1,74.0,58.4,46.7,55.8,48.8,43.1,90,72,48,30.01,29.82,17,4,17,0.01
2013-9-2,82.4,63.8,47.0,53.9,46.5,40.6,93,60,24,29.95,29.69,24,4,24,0.01
2013-9-3,85.3,68.5,51.7,52.9,45.4,37.6,78,48,20,29.79,29.67,28,6,28,0.00
2013-9-4,85.1,61.4,49.4,57.7,49.3,41.9,88,69,23,30.11,29.77,24,4,24,0.57
2013-9-5,83.4,63.5,50.1,60.4,50.0,41.9,91,66,25,30.05,29.80,26,3,26,0.01
2013-9-6,82.8,63.7,53.1,57.9,47.3,38.5,81,59,22,29.95,29.73,29,5,29,0.17
2013-9-7,81.2,65.5,48.0,50.7,45.0,39.1,88,52,24,29.94,29.66,20,4,20,0.00
2013-9-8,79.0,61.4,46.0,53.6,45.7,39.6,87,60,27,29.85,29.52,20,4,20,0.03
2013-9-9,72.0,61.0,53.8,54.1,48.8,42.6,93,66,42,29.75,29.52,18,5,18,0.25
2013-9-10,57.6,54.4,51.7,54.2,52.0,49.7,94,92,84,29.99,29.68,13,5,13,0.30
2013-9-11,53.8,53.8,53.8,51.5,51.5,51.5,92,92,92,29.98,29.98,10,7,10,0.00
2013-9-12,55.9,53.3,51.9,54.5,51.7,50.2,95,94,94,30.08,30.05,12,3,12,1.31
2013-9-15,52.0,49.4,47.3,48.6,46.8,45.4,93,91,85,30.11,30.04,7,2,7,0.63
2013-9-16,69.6,54.1,45.1,52.7,46.2,40.6,95,78,36,30.10,29.77,22,4,22,0.00
2013-9-17,75.1,60.7,43.2,43.9,39.2,26.1,92,50,17,29.90,29.57,24,7,24,0.00
2013-9-18,67.3,56.8,46.8,48.8,41.0,35.5,90,58,35,29.79,29.49,35,9,35,0.10
2013-9-19,57.5,49.6,38.6,46.3,39.8,35.8,92,70,46,30.15,29.62,14,5,14,0.00
2013-9-20,65.6,47.9,32.1,47.2,37.6,28.9,94,71,31,30.18,29.89,14,3,14,0.01
2013-9-21,73.3,57.0,37.2,41.5,34.2,25.2,91,49,19,29.91,29.55,30,7,30,0.00
2013-9-22,63.4,49.7,41.3,47.2,40.2,34.4,94,72,40,29.66,29.39,29,6,29,0.24
2013-9-23,55.6,49.0,43.6,43.5,31.2,24.6,92,52,34,29.91,29.33,41,16,41,0.13
2013-9-24,67.9,55.7,43.9,33.6,22.9,3.1,57,31,10,30.00,29.57,28,12,28,0.00
2013-9-25,72.8,63.0,48.2,33.8,20.8,7.8,43,20,13,29.59,29.14,28,8,28,0.00
2013-9-26,63.9,49.2,38.3,42.7,36.2,26.4,89,63,41,29.65,29.30,20,4,20,0.00
2013-9-27,46.8,42.2,35.8,43.9,35.0,16.3,92,78,42,29.92,29.53,34,9,34,0.08
2013-9-28,55.7,49.3,35.6,27.6,23.5,15.0,50,37,29,30.04,29.89,34,14,34,0.00
2013-9-29,64.3,54.9,45.1,23.7,18.3,12.1,40,24,19,29.96,29.67,34,16,34,0.00
2013-9-30,73.5,60.0,48.3,30.9,23.2,18.1,44,25,18,29.71,29.45,38,14,38,0.00
2013-10-1,66.3,53.9,38.9,42.2,35.7,26.2,86,53,31,29.89,29.71,16,4,16,0.00
2013-10-2,69.1,49.7,32.2,38.9,32.0,20.2,91,59,17,29.97,29.67,20,5,20,0.00
2013-10-3,63.1,46.1,34.0,41.3,35.7,24.1,93,70,26,29.70,29.54,17,6,17,0.23
2013-10-4,42.8,33.9,28.8,38.4,22.7,8.0,93,67,36,30.22,29.52,34,10,34,0.20
2013-10-5,48.5,38.8,29.8,12.0,7.3,-2.3,47,28,15,30.24,30.08,36,19,36,0.00
2013-10-6,65.3,50.1,34.6,32.1,22.0,-1.0,64,35,17,30.20,29.94,24,9,24,0.00
2013-10-7,70.8,57.5,40.9,26.1,15.9,9.2,42,21,10,30.09,29.60,26,11,26,0.00
2013-10-8,69.4,57.0,38.5,28.8,18.4,8.1,65,25,13,29.69,29.40,33,14,33,0.00
2013-10-9,61.2,48.2,36.3,37.8,31.4,22.8,81,54,30,29.90,29.51,16,5,16,0.00
2013-10-10,51.9,43.0,34.9,42.6,33.5,22.8,90,70,45,29.76,29.34,32,7,32,0.07
2013-10-11,48.9,41.9,33.1,27.3,24.8,20.3,63,51,37,30.00,29.30,46,18,46,0.09
2013-10-12,53.5,38.0,27.8,33.9,28.4,19.1,91,71,28,30.18,29.97,17,4,17,0.00
2013-10-13,59.5,40.6,24.8,40.6,30.0,22.0,91,70,30,30.23,29.68,14,3,14,0.01
2013-10-14,50.4,40.0,32.7,33.4,28.3,22.0,89,65,38,30.08,29.66,25,8,25,0.02
2013-10-15,38.8,30.3,26.4,27.9,25.0,21.8,89,80,60,30.26,30.04,14,4,14,0.00
2013-10-16,46.7,34.4,18.6,24.0,14.8,6.5,88,51,24,30.25,29.93,29,10,29,0.01
2013-10-17,45.7,36.0,29.3,27.9,21.0,9.1,89,57,29,30.04,29.87,31,10,31,0.00
2013-10-18,39.9,31.1,19.4,26.3,16.7,8.4,90,60,32,30.27,29.98,28,9,28,0.14
2013-10-19,53.2,42.7,34.4,19.5,14.7,11.9,44,32,23,30.10,29.75,39,20,39,0.00
2013-10-20,45.2,37.4,24.4,31.0,23.0,15.5,91,61,31,30.13,29.72,35,8,35,0.02
2013-10-21,49.5,35.5,18.4,28.5,20.2,14.9,90,59,30,30.35,30.04,26,8,26,0.04
2013-10-22,60.4,49.6,41.9,26.3,21.4,18.4,42,33,25,30.09,29.91,22,11,22,0.00
2013-10-23,62.3,47.7,28.8,30.6,23.2,16.8,81,41,19,30.18,29.89,21,7,21,0.00
2013-10-24,61.3,38.2,21.9,32.8,24.1,18.8,90,64,22,30.36,30.09,16,3,16,0.00
2013-10-25,63.4,40.2,23.0,32.9,23.0,17.0,86,57,17,30.32,30.02,20,3,20,0.01
2013-10-26,58.0,38.3,23.5,31.6,24.7,17.8,84,62,27,30.46,30.08,12,3,12,0.00
2013-10-27,58.7,48.3,33.8,23.6,19.0,12.4,60,32,20,30.03,29.66,26,10,26,0.00
2013-10-28,34.7,30.4,26.1,28.9,24.7,20.8,91,80,59,30.07,29.78,12,4,12,0.00
2013-10-29,53.5,33.6,24.4,31.9,25.6,17.6,91,76,26,30.08,29.74,20,5,20,0.02
2013-10-30,42.8,35.3,29.4,30.2,20.0,12.3,93,55,35,29.90,29.65,36,15,36,0.04
2013-10-31,40.5,35.1,31.8,22.4,15.1,9.7,60,44,33,29.90,29.75,43,22,43,0.00
2013-11-1,42.9,37.0,32.9,25.0,17.4,9.7,70,46,27,30.21,29.85,26,11,26,0.00
2013-11-2,56.7,47.9,37.0,14.0,5.0,-9.2,38,19,7,30.14,29.51,38,19,38,0.00
2013-11-3,54.1,46.7,29.4,23.7,11.8,-9.6,69,28,7,29.72,29.35,41,17,41,0.00
2013-11-4,34.6,29.0,23.2,19.0,12.2,4.2,70,50,34,30.04,29.65,36,11,36,0.00
2013-11-5,33.4,26.3,20.3,20.0,3.2,-8.9,83,40,20,30.25,29.94,39,13,39,0.00
2013-11-6,38.2,31.6,23.2,16.0,9.8,-2.5,54,40,31,30.33,30.16,45,21,45,0.00
2013-11-7,53.2,42.8,33.2,18.1,16.2,14.4,49,35,23,30.37,29.81,28,14,28,0.00
2013-11-8,56.9,47.8,38.0,18.2,13.2,7.5,39,25,19,29.95,29.56,55,22,55,0.00
2013-11-9,56.5,42.6,28.8,23.6,17.8,13.9,73,39,22,30.21,29.86,24,7,24,0.00
2013-11-10,59.5,45.0,28.7,21.9,15.6,12.2,74,33,17,30.22,29.95,22,10,22,0.00
2013-11-11,59.9,42.6,27.6,27.3,19.2,11.3,87,46,15,30.47,30.00,31,10,31,0.00
2013-11-12,55.7,36.9,22.2,25.0,20.3,2.6,88,57,15,30.77,30.15,18,4,18,0.00
2013-11-13,56.9,48.9,42.1,17.9,8.4,1.2,35,20,13,30.33,29.83,27,12,27,0.00
2013-11-14,51.0,42.7,32.5,23.1,14.0,5.6,56,32,18,29.97,29.61,24,10,24,0.00
2013-11-15,49.8,40.2,31.9,29.2,14.9,1.9,84,40,19,29.64,29.33,36,14,36,0.00
2013-11-16,41.5,33.8,25.8,27.0,18.4,12.1,86,55,32,29.53,29.24,47,19,47,0.00
2013-11-17,41.2,33.3,25.7,21.6,13.9,10.2,83,46,29,30.11,29.48,51,22,51,0.00
2013-11-18,54.7,37.9,22.2,16.9,11.3,4.9,58,36,14,30.22,29.91,39,13,39,0.00
2013-11-19,49.8,42.3,24.7,27.3,15.8,0.2,69,36,16,30.04,29.57,30,13,30,0.00
2013-11-20,48.6,40.0,31.5,26.6,19.7,14.5,77,45,28,29.84,29.66,37,12,37,0.00
2013-11-21,31.5,13.3,6.3,25.8,7.9,1.1,86,79,70,30.86,29.84,13,6,13,0.00
2013-11-22,29.7,17.3,7.4,25.5,12.6,2.5,87,81,74,30.91,30.65,8,1,8,0.10
2013-11-23,31.3,20.3,11.4,23.3,14.7,7.2,86,79,65,30.76,30.48,7,1,7,0.10
2013-11-24,39.8,25.9,10.7,31.6,18.0,0.6,90,74,23,30.50,29.96,32,3,32,0.06
2013-11-25,39.5,30.2,16.9,20.4,16.9,10.9,83,58,35,30.41,29.96,22,4,22,0.00
2013-11-26,45.8,26.5,14.3,19.1,13.2,9.8,84,61,26,30.57,30.28,26,4,26,0.00
2013-11-27,51.4,40.0,24.4,18.7,13.8,8.8,70,36,22,30.25,29.92,27,12,27,0.00
2013-11-28,50.5,28.7,17.2,24.7,17.8,12.1,82,66,27,30.40,30.08,13,2,13,0.00
2013-11-29,47.7,39.9,24.5,18.9,15.1,10.8,77,38,26,30.22,30.01,34,15,34,0.00
2013-11-30,45.5,39.1,34.0,15.4,12.5,8.9,45,34,24,30.16,30.02,29,15,29,0.00
2013-12-1,44.9,37.3,28.5,23.8,16.8,11.4,58,43,28,30.12,29.72,47,20,47,0.00
2013-12-2,40.8,37.9,34.4,24.0,21.3,17.8,64,51,44,29.82,29.52,51,31,51,0.00
2013-12-3,38.0,27.8,5.2,28.5,16.4,-0.2,83,64,44,29.76,29.39,33,8,33,0.00
2013-12-4,6.5,0.4,-10.5,0.5,-5.7,-17.7,78,75,68,30.42,29.76,14,4,14,0.00
2013-12-5,10.7,-4.4,-12.8,3.7,-11.3,-20.4,75,71,67,30.56,30.29,17,5,17,0.09
2013-12-6,8.1,-4.3,-13.0,0.5,-11.3,-20.6,74,71,68,30.69,30.43,17,4,17,0.00
2013-12-7,17.5,3.4,-7.7,8.4,-3.6,-14.3,75,72,66,30.49,30.02,16,4,16,0.00
2013-12-8,18.8,7.6,-7.5,3.3,-5.3,-13.9,79,57,32,30.25,29.87,33,7,33,0.00
2013-12-9,17.2,6.6,-7.7,-2.0,-10.8,-17.1,75,47,27,30.50,30.25,47,23,47,0.01
2013-12-10,25.0,18.9,13.6,4.9,-0.2,-4.1,48,43,38,30.37,30.07,54,33,54,0.00
2013-12-13,41.5,33.3,25.6,11.0,7.4,4.6,45,34,22,30.09,29.71,29,13,29,0.00
2013-12-14,36.8,29.0,17.5,11.7,5.9,1.8,56,38,25,30.30,30.09,43,18,43,0.00
2013-12-15,43.5,36.2,28.8,14.2,11.5,6.8,50,36,25,30.23,30.04,43,26,43,0.00
2013-12-16,47.4,40.5,36.2,14.2,10.5,4.7,38,29,20,30.19,30.02,45,26,45,0.00
2013-12-17,51.4,44.3,38.8,11.1,8.2,4.4,28,23,18,30.25,29.94,37,16,37,0.00
2013-12-18,53.2,46.1,41.9,13.2,7.0,4.0,28,20,15,29.94,29.56,33,17,33,0.00
2013-12-19,48.8,37.6,15.2,23.9,15.7,9.5,86,46,21,29.74,29.33,39,13,39,0.00
2013-12-20,37.8,24.2,11.2,25.0,10.0,-1.7,88,58,30,29.90,29.56,28,8,28,0.00
2013-12-21,29.0,23.6,14.6,17.9,10.2,-1.7,85,60,29,29.97,29.51,28,12,28,0.00
2013-12-22,27.6,19.6,6.3,11.0,6.3,1.3,82,58,34,30.29,29.97,29,9,29,0.00
2013-12-23,35.8,26.4,11.2,17.9,12.1,5.5,83,57,34,30.38,30.04,45,18,45,0.00
2013-12-24,37.2,29.1,18.4,26.0,12.8,-1.5,85,51,34,30.37,29.98,45,18,45,0.00
2013-12-25,37.6,29.3,20.8,4.5,1.3,-3.6,45,30,22,30.49,30.23,28,15,28,0.00
2013-12-26,43.2,36.0,27.3,11.8,4.7,-5.0,45,27,19,30.35,30.17,33,15,33,0.00
2013-12-27,52.5,37.7,23.2,18.2,15.1,9.9,72,42,24,30.37,30.02,25,6,25,0.00
2013-12-28,44.6,33.6,17.7,19.8,15.7,7.3,85,52,24,30.17,29.75,21,10,21,0.00
2013-12-29,31.6,21.5,8.6,21.2,6.9,-2.8,85,58,26,30.43,29.99,38,10,38,0.07
2013-12-30,35.9,30.3,25.0,11.8,8.4,3.6,52,39,29,30.23,29.96,36,16,36,0.00
2013-12-31,40.8,35.5,31.5,19.6,16.1,8.4,58,45,34,30.08,29.84,46,20,46,0.00
2014-1-1,34.6,26.9,15.9,25.0,13.4,4.9,88,57,33,30.38,29.84,30,9,30,0.00
2014-1-2,44.5,35.1,18.0,13.2,6.3,-2.9,70,30,19,30.34,29.89,35,18,35,0.00